Location: *
(55.5817°S, 142.4781°W)
Time: 07:46:27
(UTC+00:00)

Meteor 1-16 Rocket - Pass Details

Date: 29 April 2025
Orbit: 788 x 906 km, 81.2° (Epoch: 23 May)

Event Time Altitude Azimuth Distance (km) Brightness Sun altitude
Rises 15:08:49 0° 352° (N) 3,397 7.3 -14.6°
Reaches altitude 10° 15:11:11 10° 352° (N) 2,487 6.6 -14.3°
Maximum altitude 15:16:52 82° 78° (ENE) 897 4.4 -13.5°
Drops below altitude 10° 15:22:47 10° 164° (SSE) 2,592 6.8 -12.7°
Sets 15:25:18 0° 164° (SSE) 3,551 7.5 -12.3°
